Wellsville, NY

9:07 AM EDT on August 30, 2016 (GMT -0400)
Wellsville Municipal-Tarantine

Weather History for KELZ - September, 2013

Change the Weather History Date:

Friday, September 13, 2013

  Actual Average (KBFD) Record (KBFD)
Temperature  
Mean Temperature 52 °F 58 °F  
Max Temperature 59 °F 69 °F 83 °F (1980)
Min Temperature 46 °F 46 °F 29 °F (1964)
Degree Days  
Heating Degree Days 14 4  
Month to date heating degree days 34  
Since 1 July heating degree days 187  
Cooling Degree Days 0 1  
Month to date cooling degree days 13  
Year to date cooling degree days 190  
Growing Degree Days 2 (Base 50)    
Moisture  
Dew Point 48 °F    
Average Humidity 85    
Maximum Humidity 94    
Minimum Humidity 72    
Precipitation  
Precipitation 0.07 in 0.13 in 2.34 in (1977)
Month to date precipitation 1.68  
Year to date precipitation 31.63  
Sea Level Pressure  
Sea Level Pressure 29.89 in    
Wind  
Wind Speed 10 mph (NW)    
Max Wind Speed 15 mph    
Max Gust Speed 23 mph    
Visibility 10 miles    
Events Rain    
T = Trace of Precipitation, MM = Missing Value Source: NWS Daily Summary

Daily Weather History Graph

Daily Weather History Graph

Search for Another Location

Airport or City:

Trip Planner

Search our weather history database for the weather conditions in past years. The results will help you decide how hot, cold, wet, or windy it might be!

Date:

Astronomy

Sep. 13, 2013 Rise Set
Actual Time 6:50 AM EDT 7:24 PM EDT
Civil Twilight 6:21 AM EDT 7:52 PM EDT
Nautical Twilight 5:48 AM EDT 8:25 PM EDT
Astronomical Twilight 5:14 AM EDT 9:00 PM EDT
Moon 3:17 PM EDT (9/13) 12:12 AM EDT (9/13)
Length of Visible Light 13h 30m
Length of Day
12h 34m
First Quarter, 61% of the Moon is Illuminated
Sep 13
First Quarter
Sep 19
Full
Sep 26
Last Quarter
Oct 4
New
Oct 11
First Quarter

Hourly Weather History & Observations

Time (EDT) Temp. Windchill Dew Point Humidity Pressure Visibility Wind Dir Wind Speed Gust Speed Precip Events Conditions
12:33 AM 57.2 °F - 53.6 °F 88% 29.84 in 10.0 mi NW 9.2 mph - N/A   Mostly Cloudy
12:56 AM 57.0 °F - 53.1 °F 87% 29.82 in 10.0 mi NW 9.2 mph - N/A   Overcast
1:18 AM 57.2 °F - 53.6 °F 88% 29.83 in 10.0 mi WNW 9.2 mph - N/A   Mostly Cloudy
1:56 AM 55.9 °F - 53.1 °F 90% 29.81 in 10.0 mi NW 10.4 mph - N/A   Scattered Clouds
2:56 AM 55.9 °F - 53.1 °F 90% 29.81 in 10.0 mi WNW 11.5 mph - N/A   Overcast
3:21 AM 55.4 °F - 51.8 °F 88% 29.81 in 10.0 mi NW 5.8 mph - N/A   Mostly Cloudy
3:56 AM 55.9 °F - 53.1 °F 90% 29.80 in 10.0 mi NW 9.2 mph - N/A   Overcast
4:22 AM 55.4 °F - 53.6 °F 94% 29.83 in 10.0 mi WNW 9.2 mph - N/A   Overcast
4:41 AM 55.4 °F - 51.8 °F 88% 29.80 in 10.0 mi NNW 6.9 mph - N/A   Mostly Cloudy
4:54 AM 55.4 °F - 51.8 °F 88% 29.81 in 10.0 mi NW 8.1 mph - N/A   Mostly Cloudy
4:56 AM 55.0 °F - 52.0 °F 89% 29.80 in 10.0 mi NW 9.2 mph - N/A   Mostly Cloudy
5:14 AM 55.4 °F - 51.8 °F 88% 29.81 in 10.0 mi WNW 9.2 mph - N/A   Mostly Cloudy
5:30 AM 55.4 °F - 51.8 °F 88% 29.81 in 10.0 mi NW 10.4 mph - N/A   Mostly Cloudy
5:47 AM 55.4 °F - 51.8 °F 88% 29.82 in 10.0 mi NW 9.2 mph - N/A   Overcast
5:50 AM 55.4 °F - 51.8 °F 88% 29.82 in 10.0 mi NW 6.9 mph - N/A   Overcast
5:56 AM 55.0 °F - 52.0 °F 89% 29.81 in 10.0 mi NW 8.1 mph - N/A   Overcast
6:03 AM 55.4 °F - 51.8 °F 88% 29.82 in 10.0 mi NW 6.9 mph - 0.00 in Rain Light Rain
6:16 AM 55.4 °F - 51.8 °F 88% 29.82 in 6.0 mi NW 10.4 mph 16.1 mph 0.02 in Rain Light Rain
6:45 AM 53.6 °F - 51.8 °F 94% 29.83 in 10.0 mi NW 13.8 mph - 0.02 in Rain Light Rain
6:56 AM 54.0 °F - 50.0 °F 86% 29.82 in 10.0 mi NW 15.0 mph 23.0 mph 0.02 in   Overcast
7:38 AM 51.8 °F - 48.2 °F 88% 29.85 in 10.0 mi NW 13.8 mph - N/A   Overcast
7:49 AM 51.8 °F - 48.2 °F 88% 29.86 in 10.0 mi NNW 11.5 mph - N/A   Overcast
7:56 AM 52.0 °F - 48.9 °F 89% 29.86 in 10.0 mi NNW 12.7 mph 19.6 mph N/A   Overcast
8:23 AM 51.8 °F - 48.2 °F 88% 29.86 in 10.0 mi NW 9.2 mph - N/A   Scattered Clouds
8:38 AM 53.6 °F - 48.2 °F 82% 29.86 in 10.0 mi NNW 10.4 mph 16.1 mph N/A   Mostly Cloudy
8:52 AM 53.6 °F - 48.2 °F 82% 29.87 in 10.0 mi NNW 11.5 mph 17.3 mph N/A   Mostly Cloudy
8:56 AM 53.1 °F - 48.0 °F 83% 29.87 in 10.0 mi NNW 12.7 mph 17.3 mph N/A   Overcast
9:29 AM 53.6 °F - 48.2 °F 82% 29.87 in 10.0 mi NNW 15.0 mph - N/A   Mostly Cloudy
9:56 AM 54.0 °F - 48.0 °F 80% 29.88 in 10.0 mi NNW 10.4 mph - 0.00 in   Overcast
10:17 AM 53.6 °F - 46.4 °F 77% 29.88 in 10.0 mi NNW 13.8 mph - N/A   Overcast
10:56 AM 55.0 °F - 46.9 °F 74% 29.89 in 10.0 mi NNW 13.8 mph - N/A   Overcast
11:38 AM 55.4 °F - 46.4 °F 72% 29.90 in 10.0 mi NNW 9.2 mph - N/A   Mostly Cloudy
11:56 AM 52.0 °F - 46.9 °F 83% 29.91 in 10.0 mi NW 12.7 mph 20.7 mph 0.00 in Rain Light Rain
12:06 PM 53.6 °F - 46.4 °F 77% 29.90 in 10.0 mi NW 12.7 mph - 0.00 in   Overcast
12:38 PM 53.6 °F - 46.4 °F 77% 29.90 in 10.0 mi NNW 8.1 mph 19.6 mph 0.00 in   Overcast
12:49 PM 55.4 °F - 48.2 °F 77% 29.90 in 10.0 mi NW 11.5 mph - 0.00 in   Overcast
12:56 PM 57.0 °F - 48.0 °F 72% 29.90 in 10.0 mi NW 10.4 mph 18.4 mph 0.00 in   Overcast
1:56 PM 53.1 °F - 45.0 °F 74% 29.91 in 10.0 mi NW 9.2 mph - N/A   Overcast
2:56 PM 55.0 °F - 46.0 °F 72% 29.91 in 10.0 mi WNW 13.8 mph - N/A   Overcast
3:12 PM 51.8 °F - 44.6 °F 76% 29.91 in 10.0 mi WNW 11.5 mph - 0.00 in Rain Light Rain
3:30 PM 51.8 °F - 44.6 °F 76% 29.91 in 10.0 mi NW 9.2 mph - 0.00 in   Overcast
3:56 PM 51.1 °F - 45.0 °F 80% 29.92 in 9.0 mi WNW 9.2 mph - 0.01 in Rain Light Rain
4:25 PM 51.8 °F - 46.4 °F 82% 29.93 in 9.0 mi Variable 5.8 mph - 0.00 in   Overcast
4:41 PM 50.0 °F - 44.6 °F 82% 29.94 in 8.0 mi NW 10.4 mph - 0.00 in Rain Light Rain
4:56 PM 50.0 °F - 46.0 °F 86% 29.94 in 10.0 mi NW 10.4 mph - 0.00 in   Overcast
5:08 PM 50.0 °F - 46.4 °F 87% 29.94 in 10.0 mi NNW 10.4 mph - N/A   Overcast
5:19 PM 48.2 °F - 44.6 °F 87% 29.94 in 7.0 mi NNW 12.7 mph - 0.01 in Rain Light Rain
5:56 PM 48.9 °F - 45.0 °F 86% 29.96 in 10.0 mi NNW 11.5 mph - 0.01 in   Overcast
6:05 PM 48.2 °F - 44.6 °F 87% 29.95 in 10.0 mi NNW 11.5 mph - N/A   Overcast
6:21 PM 48.2 °F - 44.6 °F 87% 29.96 in 9.0 mi NNW 8.1 mph - 0.00 in Rain Light Rain
6:28 PM 48.2 °F - 44.6 °F 87% 29.96 in 10.0 mi NNW 9.2 mph - 0.00 in   Overcast
6:41 PM 48.2 °F - 44.6 °F 87% 29.96 in 10.0 mi NNW 8.1 mph - 0.00 in   Overcast
6:56 PM 48.0 °F - 44.1 °F 86% 29.98 in 9.0 mi North 10.4 mph - 0.00 in Rain Light Rain
7:56 PM 46.0 °F 41.9 °F 44.1 °F 93% 30.01 in 7.0 mi NNW 8.1 mph - 0.01 in Rain Light Rain
8:56 PM 46.0 °F 43.1 °F 44.1 °F 93% 30.02 in 10.0 mi NNW 5.8 mph - 0.00 in   Overcast
9:28 PM 46.4 °F 42.4 °F 42.8 °F 87% 30.01 in 5.0 mi NW 8.1 mph - 0.01 in Rain Light Rain
9:37 PM 46.4 °F 41.1 °F 42.8 °F 87% 30.01 in 5.0 mi NW 11.5 mph - 0.01 in Rain Light Rain
9:46 PM 46.4 °F 41.5 °F 42.8 °F 87% 30.01 in 8.0 mi NW 10.4 mph - 0.01 in Rain Light Rain
9:53 PM 46.4 °F 41.9 °F 42.8 °F 87% 30.01 in 10.0 mi NNW 9.2 mph - 0.01 in   Overcast
9:56 PM 46.0 °F 41.4 °F 43.0 °F 89% 30.03 in 10.0 mi NW 9.2 mph - 0.01 in   Overcast
10:56 PM 46.0 °F 41.9 °F 43.0 °F 89% 30.03 in 10.0 mi NNW 8.1 mph - N/A   Overcast
11:56 PM 46.0 °F 40.2 °F 43.0 °F 89% 30.04 in 7.0 mi NNW 12.7 mph - 0.01 in Rain Light Rain